Regional Weather Roundup
Issued by NWS

Home | Current Version | Previous Version | Graphics & Text | Print | Product List | Glossary On
Versions: 1 2 3 4 5 6 7 8 9 10 11 12 13 14 15 16 17 18 19 20 21 22 23 24 25 26 27 28 29 30 31 32 33 34 35 36 37 38 39 40 41 42 43 44 45 46 47 48 49 50
000
ASUS43 KLSX 130659
RWRMO

WEATHER SUMMARY FOR MISSOURI
NATIONAL WEATHER SERVICE SPRINGFIELD MO
200 AM CDT SUN JUL 13 2014

NOTE: "FAIR" INDICATES FEW OR NO CLOUDS BELOW 12,000 FEET WITH NO
       SIGNIFICANT WEATHER AND/OR OBSTRUCTIONS TO VISIBILITY.
       CURRENT SKY AND/OR WEATHER CONDITIONS ARE NOT AVAILABLE FOR
       CHILLICOTHE AND FARMINGTON.

MOZ001>031-035>038-043-044-053-054-130800-
...NORTHERN AND WESTERN MISSOURI...

CITY           SKY/WX    TMP DP  RH WIND       PRES   REMARKS
KANSAS CTY INT CLOUDY    80  69  69 NW9       30.00R
KANSAS C DTWN  PTCLDY    84  66  54 SW12      29.95F
LEE`S SUMMIT   CLEAR     79  67  66 SW10      29.99R
ST JOSEPH      MOCLDY    75  68  78 N14       30.02R
CHILLICOTHE      N/A     78  72  81 VRB6      30.00R
KIRKSVILLE     HVY RAIN  75  73  93 NW9       30.00R FOG

$$
MOZ066>068-077>081-088>096-101>105-130800-
...SOUTHWEST MISSOURI...

CITY           SKY/WX    TMP DP  RH WIND       PRES   REMARKS
SPRINGFIELD    CLEAR     73  67  81 S7        30.05F
JOPLIN         CLEAR     79  65  62 S12       30.03F

$$
MOZ032>034-039>042-045>050-055>058-069>072-130800-
...CENTRAL MISSOURI...

CITY           SKY/WX    TMP DP  RH WIND       PRES   REMARKS
COLUMBIA       CLEAR     78  69  73 SW10      29.99S
JEFFERSON CITY CLEAR     80  69  69 CALM      29.98S
ROLLA          CLEAR     75  70  84 S8        30.01F
SEDALIA        CLEAR     79  68  69 SW10      30.00S
OSAGE BEACH    CLEAR     79  66  65 SW8       30.01S

$$
MOZ051-052-059>065-130800-
...EAST CENTRAL MISSOURI...

CITY           SKY/WX    TMP DP  RH WIND       PRES   REMARKS
ST LOUIS INTL  MOCLDY    83  70  64 SW10      29.98S
SPIRIT OF STL  PTCLDY    80  69  69 SW7       29.97S
ST CHARLES     PTCLDY    80  69  69 SW8       29.96R

$$
MOZ072>076-082>087-097>100-106>115-130800-
...SOUTH CENTRAL AND SOUTHEAST MISSOURI...

CITY           SKY/WX    TMP DP  RH WIND       PRES   REMARKS
CAPE GIRARDEAU CLEAR     78  73  84 S5        30.02F
FARMINGTON       N/A    N/A N/A N/A MISG        N/A
POPLAR BLUFF   CLEAR     77  70  79 SW5       30.02F
WEST PLAINS    CLEAR     75  70  84 S5        30.08F

$$


USA.gov is the U.S. government's official web portal to all federal, state and local government web resources and services.